Location: Czekanka
(50.4925°N, 19.2643°E)
Time: 11:58:10
(UTC+00:00)

Cosmos 1455 Rocket - Pass Details

Date: 15 June 2024
Orbit: 602 x 625 km, 82.5° (Epoch: 16 July)

Event Time Altitude Azimuth Distance (km) Brightness Sun altitude
Rises 00:28:49 0° 341° (NNW) 2,918 7.3 -12.6°
Reaches altitude 10° 00:31:16 10° 330° (NNW) 2,008 6.2 -12.4°
Maximum altitude 00:35:04 28° 271° (W) 1,170 4.3 -12.2°
Enters shadow 00:37:39 17° 223° (SW) 1,607 4.6 -12.0°
